S5 (44065 NORAD) Tracking and Keplerian Element Data

This shows tracking and keplerian element data for the satellite.

Feedback or suggestion? Click here.




ElementValue
Catalog44065
NameS5
Epoch Orbit17
Epoch Day80.23436293
Epoch Year2019
RAAN278.5891
Inclination0.0477
Eccentricity0.0001156
Argument of Perigee242.4051
Mean Anonmoly198.9875
Mean Motion0.99336771
Decay Rate-1.25E-06
L11 44065U 19009D 19080.23436293 -.00000125 00000-0 00000-0 0 9997
L22 44065 0.0477 278.5891 0001156 242.4051 198.9875 0.99336771 170

Live tracking and technical data element details for S5 (NORAD 44065). S5 can be tracked NOW for your location showing map with azimuth and elevation plus other details from your city location.

Track the satellite on the map from your city or location and see movement details for azimuth, elevation, latitude, longitude, range, height, and movement on the map or in text.







IsCatalogInMostPopularTable: catalog: 44065, numindb: 5
Update: records affected: 1



GetName: 44065 S5

Hit Count: updated at: Sat, 23 Mar 2019 00:32:08 GMT